Montreal Mirabel, Quebec

3:06 AM EDT on August 17, 2017 (GMT -0400)
Montreal Mirabel

Weather History for CYMX - November, 2010

Change the Weather History Date:

Wednesday, November 24, 2010

  Actual Average Record
Temperature  
Mean Temperature 30 °F -  
Max Temperature 37 °F 35 °F 64 °F (1999)
Min Temperature 23 °F 23 °F 3 °F (1996)
Degree Days  
Heating Degree Days 35    
Moisture  
Dew Point 13 °F    
Average Humidity 51    
Maximum Humidity 75    
Minimum Humidity 30    
Precipitation  
Precipitation 0.00 in - - ()
Sea Level Pressure  
Sea Level Pressure 30.14 in    
Wind  
Wind Speed 7 mph ()    
Max Wind Speed 15 mph    
Max Gust Speed 25 mph    
Visibility 17.5 miles    
Events      
Averages and records for this station are not official NWS values.
T = Trace of Precipitation, MM = Missing Value Source: Averaged Metar Reports

Daily Weather History Graph

Daily Weather History Graph

Search for Another Location

Airport or City:

Trip Planner

Search our weather history database for the weather conditions in past years. The results will help you decide how hot, cold, wet, or windy it might be!

Date:

Astronomy

Nov. 24, 2010 Rise Set
Actual Time 7:07 AM EST 4:17 PM EST
Civil Twilight 6:34 AM EST 4:50 PM EST
Nautical Twilight 5:58 AM EST 5:27 PM EST
Astronomical Twilight 5:22 AM EST 6:02 PM EST
Moon 6:59 PM EST (11/24) 9:56 AM EST (11/24)
Length of Visible Light 10h 15m
Length of Day
9h 09m
Waning Gibbous, 90% of the Moon is Illuminated
Nov 24
Waning Gibbous
Nov 28
Last Quarter
Dec 5
New
Dec 13
First Quarter
Dec 21
Full

Hourly Weather History & Observations

Time (EST) Temp. Windchill Dew Point Humidity Pressure Visibility Wind Dir Wind Speed Gust Speed Precip Events Conditions
12:00 AM 37.4 °F 29.3 °F 30.2 °F 75% 29.86 in 15.0 mi West 12.7 mph 23.0 mph N/A   Mostly Cloudy
12:11 AM 35.6 °F 28.6 °F 28.4 °F 75% - 20.0 mi West 9.2 mph 19.6 mph N/A   Mostly Cloudy
1:00 AM 35.6 °F 29.2 °F 26.6 °F 70% 29.88 in 25.0 mi West 8.1 mph 23.0 mph N/A   Scattered Clouds
2:00 AM 33.8 °F 26.4 °F 23.0 °F 65% 29.92 in 25.0 mi WNW 9.2 mph 19.6 mph N/A   Mostly Cloudy
3:00 AM 32.0 °F 24.8 °F 21.2 °F 64% 29.97 in 25.0 mi WNW 8.1 mph - N/A   Mostly Cloudy
4:00 AM 32.0 °F 21.6 °F 19.4 °F 60% 30.00 in 25.0 mi WNW 15.0 mph 25.3 mph N/A   Partly Cloudy
5:00 AM 30.2 °F - 19.4 °F 64% 30.04 in 25.0 mi WNW 2.3 mph - N/A   Scattered Clouds
6:00 AM 28.4 °F 22.2 °F 17.6 °F 64% 30.08 in 25.0 mi WNW 5.8 mph - N/A   Partly Cloudy
7:00 AM 28.4 °F 19.1 °F 17.6 °F 64% 30.12 in 40.0 mi West 10.4 mph 17.3 mph N/A   Partly Cloudy
8:00 AM 28.4 °F 22.2 °F 17.6 °F 64% 30.14 in 40.0 mi West 5.8 mph 17.3 mph N/A   Partly Cloudy
9:00 AM 28.4 °F 21.2 °F 14.0 °F 55% 30.17 in 45.0 mi WNW 6.9 mph 18.4 mph N/A   Partly Cloudy
10:00 AM 30.2 °F 21.9 °F 12.2 °F 47% 30.18 in 45.0 mi West 9.2 mph 17.3 mph N/A   Partly Cloudy
11:00 AM 32.0 °F 23.0 °F 10.4 °F 41% 30.18 in 45.0 mi West 11.5 mph 19.6 mph N/A   Partly Cloudy
12:00 PM 32.0 °F 24.8 °F 5.0 °F 32% 30.18 in 45.0 mi West 8.1 mph 18.4 mph N/A   Partly Cloudy
1:00 PM 32.0 °F 24.8 °F 6.8 °F 35% 30.19 in 45.0 mi West 8.1 mph 18.4 mph N/A   Clear
2:00 PM 32.0 °F 24.2 °F 3.2 °F 30% 30.19 in 45.0 mi WNW 9.2 mph 17.3 mph N/A   Partly Cloudy
3:00 PM 32.0 °F 25.6 °F 3.2 °F 30% 30.19 in 45.0 mi NW 6.9 mph - N/A   Partly Cloudy
4:00 PM 32.0 °F 27.5 °F 3.2 °F 30% 30.21 in 45.0 mi West 4.6 mph - N/A   Partly Cloudy
5:00 PM 28.4 °F 21.2 °F 5.0 °F 37% 30.23 in 25.0 mi West 6.9 mph - N/A   Partly Cloudy
6:00 PM 28.4 °F 24.6 °F 5.0 °F 37% 30.26 in 25.0 mi WNW 3.5 mph - N/A   Partly Cloudy
7:00 PM 26.6 °F 22.6 °F 5.0 °F 40% 30.27 in 25.0 mi West 3.5 mph - N/A   Partly Cloudy
8:00 PM 24.8 °F 20.5 °F 5.0 °F 43% 30.28 in 25.0 mi West 3.5 mph - N/A   Partly Cloudy
9:00 PM 23.0 °F 17.0 °F 5.0 °F 46% 30.29 in 25.0 mi West 4.6 mph - N/A   Clear
10:00 PM 23.0 °F 17.0 °F 6.8 °F 50% 30.30 in 25.0 mi West 4.6 mph - N/A   Clear